Hauptseite
METAR-TAF:

METAR-TAF

Flughäfen :

Diepholz, Deutschland

Fliegerhorst Diepholz

Breite: 52-35N, Länge: 008-21E, Höhe: 39 m

Beobachtung

Neuester Wetterbericht von vor 10 Stunden und 54 Minuten, um 13:20 UTC
Wind 8 kt aus Ost
Temperatur 20°C
Luftfeuchtigkeit 60%
Luftdruck 1010 hPa
Sichtweite 10 km oder mehr
Aufgelockert bewölkt in der Höhe von 13000 ft
Durchbrochene Bewölkung in der Höhe von 20000 ft

METAR: ETND 271320Z 10008KT 9999 SCT130 BKN200 20/12 Q1010 BLU+

Zeit: 02:14 (00:14 UTC)


TAF: fehlend

Wetterbeobachtungen und Prognosen von mehr als 4000 Flughäfen (METAR und TAF Bericht).

Die verfügbaren Stationen werden durch gelbe und rote Markierungen auf der Karte dargestellt.

Führen Sie die Maus auf sie, um den Namen der Station zu sehen.

Darauf klicken, um die Beobachtung von Wetterbeobachtungen und Prognosen zu sehen.

Um die Karte zu ändern : klicken Sie auf den grünen Tasten mit einem schwarzen Kreuz Zum Vergrößern, auf den grünen Button mit einem Gedankenstrich zu verkleinern, oder auf die grünen Pfeile für benachbarte Karten.


METAR-TAF: